Location: Mauna Kea VIS
(19.7591°N, 155.4561°W)
Time: 03:57:14
(UTC-10:00)

Daily predictions for brighter satellites

Satellite Brightness Start Highest point End
(mag) Time Altitude Azimuth Time Altitude Azimuth Time Altitude Azimuth
Cosmos 2333 Rocket 4.0 03:37:18 27° NE 03:37:18 27° NE 03:39:50 10° NNE
Hubble Space Telescope 3.8 03:51:37 14° NE 03:51:37 14° NE 03:52:13 10° NE
VEP-3 4.2 02:54:55 10° WSW 03:54:01 90° NNW 04:01:14 10° ENE
Okean O Rocket 4.4 03:52:59 10° NNE 03:53:10 11° NNE 03:53:10 11° NNE
SL-16 R/B 4.0 04:01:58 14° SSE 04:05:42 27° ESE 04:10:22 10° NE
Cosmos 1980 4.2 04:16:32 48° N 04:16:32 48° N 04:20:38 10° NNE
CZ-4B R/B 3.5 04:12:49 10° N 04:17:18 58° N 04:17:18 58° N
Cosmos 2219 Rocket 3.8 04:23:05 21° NNW 04:23:05 21° NNW 04:25:08 10° N
CZ-4B DEB 4.4 04:16:25 10° N 04:20:55 58° NNW 04:20:55 58° NNW
ADEOS II 2.8 04:24:56 10° N 04:28:28 40° NNW 04:28:28 40° NNW
Cosmos 2285 Rocket 4.2 04:31:55 51° WNW 04:31:55 51° WNW 04:37:47 10° N
GOES 2 Rocket 4.4 04:33:05 30° NNW 04:34:02 32° N 04:38:54 10° ENE
Cosmos 1844 Rocket 2.8 04:31:44 10° NNW 04:37:17 71° ENE 04:42:48 10° SSE
IRAS Rocket 4.4 04:37:26 10° N 04:42:44 48° WNW 04:42:47 48° WNW
Cosmos 405 Rocket 3.3 04:45:27 48° NNW 04:45:27 48° NNW 04:48:30 10° N
ASTRO E2 3.5 04:46:11 39° SSE 04:46:11 39° SSE 04:49:06 10° SE
Meteor 1-23 Rocket 4.2 04:43:02 35° SSW 04:45:30 66° W 04:51:15 10° N
NOSS 3-1 (A) 3.1 04:44:28 46° SW 04:46:11 72° WNW 04:52:06 10° NNE
NOSS 3-1 (C) 3.5 04:47:01 45° WNW 04:47:34 46° WNW 04:53:15 10° NNE
Cosmos 1666 2.6 04:44:33 10° N 04:48:25 88° W 04:52:17 10° S
Cosmos 2237 Rocket 2.9 04:51:42 33° WNW 04:51:42 33° WNW 04:56:24 10° N
RUBIN 8/PSLV 4.4 04:48:26 10° N 04:52:42 71° WNW 04:54:10 40° SSW
Cosmos 962 Rocket 4.4 04:47:41 10° NNW 04:53:57 66° W 05:00:14 10° S
Cosmos 2278 Rocket 3.6 04:53:28 10° N 04:58:44 39° ENE 05:03:58 10° SE
Cosmos 371 Rocket 3.3 04:57:52 35° SW 04:59:43 58° WNW 05:04:29 10° N
GPS 2-14 Rocket1 2.6 05:00:12 52° W 05:01:05 79° N 05:05:09 10° E
ATLAS 5 CENTAUR R/B 4.0 04:56:40 10° N 05:02:33 39° ENE 05:08:41 10° SE
Cosmos 1898 Rocket 3.5 04:58:27 10° N 05:03:37 80° ENE 05:08:46 10° SSE
GPS 2-18 Rocket1 3.0 05:03:18 49° WSW 05:04:11 72° SSW 05:08:08 10° ESE
Skynet4D Del rocket 4.1 05:01:10 27° SW 05:04:21 63° SSE 05:10:55 10° ENE
Cosmos 332 Rocket 4.3 05:03:56 34° W 05:04:32 36° WNW 05:09:01 10° N
Meteor 2-4 Rocket 4.4 05:05:28 29° W 05:05:40 29° W 05:10:23 10° NNW
Cosmos 1025 Rocket 4.3 05:11:02 22° WNW 05:11:02 22° WNW 05:13:33 10° NNW
Cosmos 1763 Rocket 4.1 05:09:16 29° W 05:10:14 32° WNW 05:14:45 10° N
EO 1 Del DPAF 4.0 05:13:29 30° W 05:13:29 30° W 05:16:20 10° NW
SJ-6F 4.3 05:09:47 10° N 05:13:50 69° WNW 05:17:53 10° SSW
Cosmos 2333 Rocket 4.1 05:19:21 12° WNW 05:19:21 12° WNW 05:20:47 10° NW
Okean 2 4.3 05:18:33 26° W 05:19:02 26° W 05:22:33 10° NNW
Meteor 1-31 Rocket 3.5 05:17:26 10° NNW 05:20:48 31° WNW 05:22:24 22° WSW
XTE 3.1 05:20:21 33° WNW 05:21:25 58° N 05:24:19 10° ENE
Atlas Centaur 2 3.5 05:19:35 10° SSW 05:22:27 18° SSE 05:25:03 10° ESE
Tiangong 2 3.2 05:19:53 10° NNW 05:22:32 25° NE 05:25:11 10° E
Cosmos 858 Rocket 4.4 05:18:17 10° NNW 05:23:31 72° WSW 05:28:41 10° S
USA 116 3.8 05:20:54 10° S 05:24:48 73° W 05:29:17 10° NNW
Cosmos 841 Rocket 4.3 05:23:33 18° WSW 05:26:13 28° WNW 05:30:36 10° NNW
Fermi 4.5 05:25:47 18° WNW 05:28:21 42° N 05:32:12 10° ENE
Cosmos 1937 Rocket 3.4 05:24:04 10° NNW 05:29:21 80° WSW 05:34:34 10° S
SL-8 Rocket 4.0 05:23:24 10° NNW 05:29:23 54° W 05:35:20 10° SSW
Cosmos 1726 Rocket 3.5 05:25:20 10° N 05:29:47 79° W 05:34:13 10° S
Iridium 2 4.0 05:26:16 10° NNW 05:29:53 41° W 05:33:30 10° SSW
Cosmos 1892 Rocket 4.3 05:26:08 10° SW 05:29:57 30° W 05:33:47 10° NNW
Hubble Space Telescope 2.5 05:26:59 12° NW 05:29:59 24° N 05:33:22 10° NE
Meteor 1-15 Rocket 4.3 05:24:16 10° NNW 05:30:07 68° W 05:35:56 10° S
ERS-2 3.7 05:28:50 10° NNW 05:31:18 17° WNW 05:31:44 17° W
Cosmos 540 Rocket 3.4 05:26:46 10° SSW 05:31:50 68° WNW 05:36:54 10° N
Delta 142 4.3 05:26:40 13° WNW 05:32:55 71° SSW 05:38:11 10° ESE
Palapa B4 Rocket 3.8 05:33:31 16° W 05:36:41 47° S 05:42:28 10° ESE
Abrixas rocket 3.6 05:39:13 15° W 05:41:03 22° NW 05:43:42 10° N
Cosmos 1066 Rocket 4.2 05:35:30 10° S 05:41:15 77° W 05:46:52 10° N
Cosmos 864 Rocket 4.5 05:35:31 10° NNW 05:41:40 66° W 05:47:53 10° S
CZ-4 R/B 4.4 05:39:13 10° NE 05:41:51 18° E 05:44:29 10° SE
OAO 3 Rocket 3.2 05:39:53 12° WSW 05:44:07 62° NNW 05:48:44 10° NE
SEDSat Delta rocket 3.8 05:43:09 10° SW 05:47:54 49° SSE 05:52:07 10° ENE
Cosmos 1809 Rocket 4.5 05:43:12 10° NNW 05:49:16 64° W 05:55:19 10° S
SL-16 R/B 3.2 05:45:05 10° WSW 05:49:36 25° WNW 05:54:09 10° NNW
Cosmos 1626 Rocket 3.6 05:45:32 10° SSW 05:49:55 64° W 05:54:20 10° N
Okean-O 4.2 05:48:42 10° NW 05:51:23 16° WNW 05:54:04 10° WSW
GPS 2-15 Rocket1 3.3 05:46:43 10° WSW 05:51:24 68° S 05:56:01 10° E
Meteor 1-28 Rocket 3.8 05:49:31 10° SSE 05:53:14 63° ENE 05:57:00 10° N
Cosmos 1602 Rocket 3.7 05:53:38 10° SSW 05:57:54 51° W 06:02:12 10° N
CSL-04 Rocket 3.8 05:56:32 10° NNE 06:02:07 87° ESE 06:07:38 10° SSW
EPKM 4.1 05:58:02 10° WNW 06:11:43 45° SW 06:15:24 10° SE
